Погода в Орске

Россия / Оренбургская область     51°13′45″N   58°28′30″E
темп.,
°C
ветер,
м/с
пор.,
м/с
влажн.,
%
обл.,
%
осадки,
мм/ч
давл.,
гПа
погр.,
м
26 июля, пн
пн2623:00+20св48500 0.0 1016298
02:00+18с34620 0.0 1018145
05:00+16ссв35690 0.0 1018173
08:00+18ссв34580 0.0 1019375
11:00+22с22440 0.0 10191186
14:00+25ссз43313 0.0 10182440
17:00+25ссз44285 0.0 10172557
20:00+23ссв23334 0.0 10171343
27 июля, вт
вт2723:00+20в12390 0.0 1018133
02:00+18ссв11441 0.0 101893
05:00+16ссв23512 0.0 1018118
08:00+18с21500 0.0 1018299
11:00+22ссв21410 0.0 10171345
14:00+25ссз222928 0.0 10162620
17:00+25с542948 0.0 10152041
20:00+24ссв12292 0.0 10141107
28 июля, ср
ср2823:00+21ссз113217 0.0 101437
02:00+19в00407 0.0 101452
05:00+17зсз23434 0.0 1013112
08:00+20зсз24395 0.0 1013291
11:00+24зсз55345 0.0 10121925
14:00+25зсз5634100 0.0 10112806
17:00+24ссв654136 0.0 10111130
20:00+23с46314 0.0 1011915
29 июля, чт
чт2923:00+18всв48520 0.0 1013279
02:00+16ссв24580 0.0 1014148
05:00+15ссв12590 0.0 1014112
08:00+18с11440 0.0 1016266
11:00+22з12300 0.0 10151395
14:00+25зсз23230 0.0 10142255
17:00+26зсз332299 0.0 10132659
20:00+25зюз3327100 0.0 10131123
30 июля, пт
пт3023:00+22юз3528100 0.0 1013150
02:00+21юз3631100 0.0 1013149
05:00+20юз3634100 0.0 1013158
08:00+20ю1242100 0.0 1013143
11:00+24ююз61032100 0.0 1012899
14:00+29зюз9122391 0.1 10102122
17:00+30зюз81031100 0.1 10082953
20:00+24зсз4105376 0.7 1009505